Location: *
(49.5667°N, 1.3667°W)
Time: 01:14:05
(UTC+00:00)

Cosmos 1190 Rocket - Pass Details

Date: 20 September 2019
Orbit: 757 x 780 km, 74.1° (Epoch: 15 October)

Event Time Altitude Azimuth Distance (km) Brightness Sun altitude
Rises 19:46:23 0° 334° (NNW) 3,272 8.0 -16.3°
Reaches altitude 10° 19:48:48 10° 332° (NNW) 2,337 7.2 -16.6°
Maximum altitude 19:54:03 65° 251° (WSW) 849 4.4 -17.4°
Enters shadow 19:58:49 12° 171° (S) 2,147 6.0 -18.1°
